Regional Weather Roundup
Issued by NWS

Home | Current Version | Previous Version | Graphics & Text | Print | Product List | Glossary On
Versions: 1 2 3 4 5 6 7 8 9 10 11 12 13 14 15 16 17 18 19 20 21 22 23 24 25 26 27 28 29 30 31 32 33 34 35 36 37 38 39 40 41 42 43 44 45 46 47 48 49 50
000
ASUS44 KMEG 251410
RWRTN
TENNESSEE HOURLY STATE WEATHER ROUNDUP
NATIONAL WEATHER SERVICE MEMPHIS TN
900 AM CDT TUE APR 25 2017

TNZ002-004-019-021-049-052-054-088>092-251500-
WEST TENNESSEE

CITY           SKY/WX    TMP DP  RH WIND       PRES   REMARKS
MEMPHIS INTL   MOSUNNY   66  55  67 S10       29.76S
NWS MEMPHIS      N/A     66 N/A N/A MISG        N/A
JACKSON        SUNNY     63  57  81 S6        29.78R
DYERSBURG      SUNNY     64  57  78 S5        29.77S
SOMERVILLE     SUNNY     63  55  77 CALM      29.77S
UNION CITY     SUNNY     63  57  82 VRB6      29.76S HAZE
BOLIVAR        SUNNY     63  57  82 S6        29.78R
PARIS          SUNNY     63  55  77 S5        29.78S
HUNTINGDON     SUNNY     63  57  82 S6        29.78S
LEXINGTON      SUNNY     59  55  88 SW5       29.79S
SAVANNAH       SUNNY     59  57  94 S3        29.78S
$$

TNZ008-025-027-028-033-062-065-066-251500-
NORTH MIDDLE TENNESSEE

CITY           SKY/WX    TMP DP  RH WIND       PRES   REMARKS
NASHVILLE      MOSUNNY   61  55  81 CALM      29.81S
PORTLAND       CLOUDY    57  57 100 CALM      29.80S FOG
CLARKSVILLE    PTSUNNY   56  54  93 CALM      29.79S FOG
SMYRNA         PTSUNNY   58  55  90 SE3       29.82S
COOKEVILLE     CLOUDY    55  55 100 CALM      29.80F FOG
GALLATIN       FOG       55  55 100 CALM      29.84R VSB 1/4
CROSSVILLE     CLOUDY    58  55  90 VRB3      29.83R
$$

TNZ061-075-076-078-094-096-097-251500-
SOUTH MIDDLE TENNESSEE

CITY           SKY/WX    TMP DP  RH WIND       PRES   REMARKS
FAYETTEVILLE   CLOUDY    55  55 100 CALM      29.81F
TULLAHOMA      CLOUDY    55  55 100 CALM      29.82F
WINCHESTER     CLOUDY    57  55  94 CALM      29.82S
MCMINNVILLE    PTSUNNY   57  57 100 CALM      29.82S
COLUMBIA       SUNNY    N/A N/A N/A CALM      29.79S
SHELBYVILLE    CLOUDY    57  55  94 E3        29.82F
$$

TNZ017-018-042-046-047-251500-
NORTHEAST TENNESSEE

CITY           SKY/WX    TMP DP  RH WIND       PRES   REMARKS
TRI CITIES     CLOUDY    59  53  80 CALM      29.80R
ELIZABETHTON   CLOUDY    57  54  88 W3        29.80R
$$

TNZ012-013-036-069-073-074-251500-
CENTRAL EAST TENNESSEE

CITY           SKY/WX    TMP DP  RH WIND       PRES   REMARKS
KNOXVILLE      CLOUDY    59  53  80 E5        29.80R
DOWNTOWN KNOXV CLOUDY    59  55  88 CALM      29.81R
GATLINBURG     CLOUDY    59  52  77 S3        29.80R
MORRISTOWN     CLOUDY    59  55  88 CALM      29.80R
JACKSBORO      MOSUNNY   64  57  77 E6        29.82S
$$

TNZ083-085-099-251500-
SOUTHEAST TENNESSEE

CITY           SKY/WX    TMP DP  RH WIND       PRES   REMARKS
CHATTANOOGA    PTSUNNY   62  56  80 CALM      29.81R
$$

SKY/WX REPORTED AS FAIR MEANS FEW OR NO CLOUDS BELOW
12 THOUSAND FEET.





USA.gov is the U.S. government's official web portal to all federal, state and local government web resources and services.